Time,TemperatureF,DewpointF,PressureIn,WindDirection,WindDirectionDegrees,WindSpeedMPH,WindSpeedGustMPH,Humidity,HourlyPrecipIn,Conditions,Clouds,dailyrainin,SoftwareType,DateUTC
2013-03-27 00:03:00,30.0,22.0,27.54,WSW,239,0.0,0.0,73,0.01,,,0.01,,2013-03-27 04:03:00,
2013-03-27 00:13:00,30.0,22.0,27.54,WSW,239,0.0,0.0,73,0.01,,,0.01,,2013-03-27 04:13:00,
2013-03-27 00:23:00,30.0,22.0,27.54,WSW,239,0.0,1.0,72,0.01,,,0.01,,2013-03-27 04:23:00,
2013-03-27 00:33:00,30.0,22.0,27.54,WSW,239,0.0,1.0,72,0.01,,,0.01,,2013-03-27 04:33:00,
2013-03-27 00:42:00,30.0,22.0,27.54,WSW,239,0.0,1.0,72,0.01,,,0.01,,2013-03-27 04:42:00,
2013-03-27 00:53:00,29.0,22.0,27.54,East,80,0.0,2.0,76,0.00,,,0.01,,2013-03-27 04:53:00,
2013-03-27 01:02:00,30.0,23.0,27.54,SW,225,0.0,1.0,74,0.00,,,0.01,,2013-03-27 05:02:00,
2013-03-27 01:12:00,30.0,23.0,27.54,SW,225,0.0,1.0,74,0.00,,,0.01,,2013-03-27 05:12:00,
2013-03-27 01:23:00,29.0,22.0,27.54,SW,225,0.0,0.0,75,0.00,,,0.01,,2013-03-27 05:23:00,
2013-03-27 01:33:00,29.0,23.0,27.54,ESE,113,0.0,1.0,77,0.00,,,0.01,,2013-03-27 05:33:00,
2013-03-27 01:42:00,29.0,23.0,27.54,ESE,113,0.0,1.0,77,0.00,,,0.01,,2013-03-27 05:42:00,
2013-03-27 01:53:00,29.0,22.0,27.53,NE,40,1.0,3.0,76,0.00,,,0.01,,2013-03-27 05:53:00,
2013-03-27 02:02:00,29.0,23.0,27.53,NNE,30,1.0,2.0,77,0.00,,,0.01,,2013-03-27 06:02:00,
2013-03-27 02:12:00,29.0,23.0,27.53,NNE,30,1.0,2.0,77,0.00,,,0.01,,2013-03-27 06:12:00,
2013-03-27 02:22:00,29.0,22.0,27.53,NE,34,0.0,1.0,76,0.00,,,0.01,,2013-03-27 06:22:00,
2013-03-27 02:32:00,29.0,22.0,27.53,ESE,108,0.0,1.0,75,0.00,,,0.01,,2013-03-27 06:32:00,
2013-03-27 02:42:00,29.0,22.0,27.53,ESE,108,0.0,1.0,75,0.00,,,0.01,,2013-03-27 06:42:00,
2013-03-27 02:53:00,28.0,22.0,27.53,East,98,0.0,1.0,77,0.00,,,0.01,,2013-03-27 06:53:00,
2013-03-27 03:02:00,29.0,22.0,27.53,East,94,0.0,1.0,76,0.00,,,0.01,,2013-03-27 07:02:00,
2013-03-27 03:12:00,29.0,22.0,27.53,East,94,0.0,1.0,76,0.00,,,0.01,,2013-03-27 07:12:00,
2013-03-27 03:22:00,29.0,22.0,27.53,East,95,0.0,0.0,74,0.00,,,0.01,,2013-03-27 07:22:00,
2013-03-27 03:32:00,28.0,21.0,27.52,East,95,0.0,0.0,76,0.00,,,0.01,,2013-03-27 07:32:00,
2013-03-27 03:42:00,28.0,21.0,27.52,East,95,0.0,0.0,76,0.00,,,0.01,,2013-03-27 07:42:00,
2013-03-27 03:53:00,27.0,21.0,27.52,East,95,0.0,0.0,78,0.00,,,0.01,,2013-03-27 07:53:00,
2013-03-27 04:02:00,26.0,21.0,27.52,East,95,0.0,0.0,81,0.00,,,0.01,,2013-03-27 08:02:00,
2013-03-27 04:13:00,26.0,21.0,27.52,East,95,0.0,0.0,81,0.00,,,0.01,,2013-03-27 08:13:00,
2013-03-27 04:22:00,26.0,22.0,27.52,ENE,68,0.0,2.0,83,0.00,,,0.01,,2013-03-27 08:22:00,
2013-03-27 04:32:00,26.0,22.0,27.52,ENE,78,1.0,2.0,83,0.00,,,0.01,,2013-03-27 08:32:00,
2013-03-27 04:43:00,26.0,22.0,27.52,ENE,78,1.0,2.0,83,0.00,,,0.01,,2013-03-27 08:43:00,
2013-03-27 04:52:00,26.0,22.0,27.52,SSE,159,1.0,2.0,83,0.00,,,0.01,,2013-03-27 08:52:00,
2013-03-27 05:02:00,25.0,21.0,27.52,SE,131,0.0,2.0,85,0.00,,,0.01,,2013-03-27 09:02:00,
2013-03-27 05:12:00,25.0,21.0,27.52,SE,131,0.0,2.0,85,0.00,,,0.01,,2013-03-27 09:12:00,
2013-03-27 05:22:00,24.0,21.0,27.52,ESE,108,1.0,2.0,87,0.00,,,0.01,,2013-03-27 09:22:00,
2013-03-27 05:33:00,25.0,22.0,27.52,NE,48,0.0,2.0,87,0.00,,,0.01,,2013-03-27 09:33:00,
2013-03-27 05:42:00,25.0,22.0,27.52,NE,48,0.0,2.0,87,0.00,,,0.01,,2013-03-27 09:42:00,
2013-03-27 05:52:00,25.0,21.0,27.52,NE,47,0.0,1.0,86,0.00,,,0.01,,2013-03-27 09:52:00,
2013-03-27 06:02:00,25.0,21.0,27.52,ENE,67,1.0,2.0,84,0.00,,,0.01,,2013-03-27 10:02:00,
2013-03-27 06:13:00,25.0,21.0,27.52,ENE,67,1.0,2.0,84,0.00,,,0.01,,2013-03-27 10:13:00,
2013-03-27 06:23:00,25.0,21.0,27.53,ENE,75,1.0,2.0,85,0.00,,,0.01,,2013-03-27 10:23:00,
2013-03-27 06:32:00,24.0,21.0,27.53,ENE,75,0.0,1.0,87,0.00,,,0.01,,2013-03-27 10:32:00,
2013-03-27 06:42:00,24.0,21.0,27.53,ENE,75,0.0,1.0,87,0.00,,,0.01,,2013-03-27 10:42:00,
2013-03-27 06:53:00,25.0,21.0,27.53,ENE,75,1.0,2.0,86,0.00,,,0.01,,2013-03-27 10:53:00,
2013-03-27 07:03:00,24.0,20.0,27.53,ENE,57,0.0,1.0,86,0.00,,,0.01,,2013-03-27 11:03:00,
2013-03-27 07:12:00,24.0,20.0,27.53,ENE,57,0.0,1.0,86,0.00,,,0.01,,2013-03-27 11:12:00,
2013-03-27 07:22:00,25.0,21.0,27.54,ENE,57,0.0,1.0,86,0.00,,,0.01,,2013-03-27 11:22:00,
2013-03-27 07:32:00,27.0,22.0,27.55,NE,56,0.0,1.0,82,0.00,,,0.01,,2013-03-27 11:32:00,
2013-03-27 07:42:00,27.0,22.0,27.55,NE,56,0.0,1.0,82,0.00,,,0.01,,2013-03-27 11:42:00,
2013-03-27 07:53:00,26.0,22.0,27.55,West,267,0.0,2.0,83,0.00,,,0.01,,2013-03-27 11:53:00,
2013-03-27 08:02:00,29.0,24.0,27.55,ESE,114,1.0,2.0,82,0.00,,,0.01,,2013-03-27 12:02:00,
2013-03-27 08:12:00,29.0,24.0,27.55,ESE,114,1.0,2.0,82,0.00,,,0.01,,2013-03-27 12:12:00,
2013-03-27 08:23:00,29.0,24.0,27.55,SW,217,1.0,2.0,80,0.00,,,0.01,,2013-03-27 12:23:00,
2013-03-27 08:32:00,31.0,25.0,27.55,SW,224,1.0,2.0,77,0.00,,,0.01,,2013-03-27 12:32:00,
2013-03-27 08:43:00,31.0,25.0,27.55,SW,224,1.0,2.0,77,0.00,,,0.01,,2013-03-27 12:43:00,
2013-03-27 08:52:00,33.0,25.0,27.56,East,94,2.0,3.0,73,0.00,,,0.01,,2013-03-27 12:52:00,
2013-03-27 09:02:00,35.0,25.0,27.56,SW,225,1.0,2.0,67,0.00,,,0.01,,2013-03-27 13:02:00,
2013-03-27 09:12:00,35.0,25.0,27.56,SW,225,1.0,2.0,67,0.00,,,0.01,,2013-03-27 13:12:00,
2013-03-27 09:22:00,37.0,26.0,27.55,WSW,240,1.0,4.0,64,0.00,,,0.01,,2013-03-27 13:22:00,
2013-03-27 09:32:00,39.0,25.0,27.55,SW,228,3.0,5.0,58,0.00,,,0.01,,2013-03-27 13:32:00,
2013-03-27 09:42:00,39.0,25.0,27.55,SW,228,3.0,5.0,58,0.00,,,0.01,,2013-03-27 13:42:00,
2013-03-27 09:53:00,40.0,26.0,27.56,NE,37,1.0,7.0,57,0.00,,,0.01,,2013-03-27 13:53:00,
2013-03-27 10:02:00,41.0,26.0,27.56,WSW,257,3.0,8.0,55,0.00,,,0.01,,2013-03-27 14:02:00,
2013-03-27 10:12:00,41.0,26.0,27.56,WSW,257,3.0,8.0,55,0.00,,,0.01,,2013-03-27 14:12:00,
2013-03-27 10:22:00,42.0,27.0,27.56,SW,222,3.0,7.0,54,0.00,,,0.01,,2013-03-27 14:22:00,
2013-03-27 10:32:00,42.0,27.0,27.55,NW,304,2.0,9.0,55,0.00,,,0.01,,2013-03-27 14:32:00,
2013-03-27 10:42:00,42.0,27.0,27.55,NW,304,2.0,9.0,55,0.00,,,0.01,,2013-03-27 14:42:00,
2013-03-27 10:52:00,43.0,27.0,27.55,WSW,243,4.0,7.0,52,0.00,,,0.01,,2013-03-27 14:52:00,
2013-03-27 11:02:00,43.0,26.0,27.55,West,270,4.0,9.0,51,0.00,,,0.01,,2013-03-27 15:02:00,
2013-03-27 11:12:00,43.0,26.0,27.55,West,270,4.0,9.0,51,0.00,,,0.01,,2013-03-27 15:12:00,
2013-03-27 11:23:00,44.0,28.0,27.55,West,259,4.0,12.0,53,0.00,,,0.01,,2013-03-27 15:23:00,
2013-03-27 11:33:00,44.0,27.0,27.55,NW,317,5.0,9.0,51,0.00,,,0.01,,2013-03-27 15:33:00,
2013-03-27 11:42:00,44.0,27.0,27.55,NW,317,5.0,9.0,51,0.00,,,0.01,,2013-03-27 15:42:00,
2013-03-27 11:53:00,45.0,27.0,27.55,NNE,31,5.0,10.0,50,0.00,,,0.01,,2013-03-27 15:53:00,
2013-03-27 12:03:00,45.0,28.0,27.55,SE,135,3.0,11.0,51,0.00,,,0.01,,2013-03-27 16:03:00,
2013-03-27 12:13:00,45.0,28.0,27.55,SE,135,3.0,11.0,51,0.00,,,0.01,,2013-03-27 16:13:00,
2013-03-27 12:23:00,45.0,27.0,27.54,NNW,336,3.0,10.0,49,0.00,,,0.01,,2013-03-27 16:23:00,
2013-03-27 12:32:00,46.0,28.0,27.54,SE,129,3.0,10.0,50,0.00,,,0.01,,2013-03-27 16:32:00,
2013-03-27 12:42:00,46.0,28.0,27.54,SE,129,3.0,10.0,50,0.00,,,0.01,,2013-03-27 16:42:00,
2013-03-27 12:52:00,45.0,25.0,27.54,West,274,5.0,12.0,46,0.00,,,0.01,,2013-03-27 16:52:00,
2013-03-27 13:03:00,45.0,27.0,27.54,SSE,148,3.0,9.0,48,0.00,,,0.01,,2013-03-27 17:03:00,
2013-03-27 13:12:00,45.0,27.0,27.54,SSE,148,3.0,9.0,48,0.00,,,0.01,,2013-03-27 17:12:00,
2013-03-27 13:22:00,45.0,26.0,27.54,NNE,19,4.0,9.0,47,0.00,,,0.01,,2013-03-27 17:22:00,
2013-03-27 13:32:00,45.0,26.0,27.54,West,262,3.0,10.0,47,0.00,,,0.01,,2013-03-27 17:32:00,
2013-03-27 13:44:00,45.0,26.0,27.54,West,262,3.0,10.0,47,0.00,,,0.01,,2013-03-27 17:44:00,
2013-03-27 13:52:00,45.0,26.0,27.54,WNW,301,4.0,9.0,47,0.00,,,0.01,,2013-03-27 17:52:00,
2013-03-27 14:02:00,45.0,26.0,27.54,WNW,294,3.0,7.0,47,0.00,,,0.01,,2013-03-27 18:02:00,
2013-03-27 14:12:00,45.0,26.0,27.54,WNW,294,3.0,7.0,47,0.00,,,0.01,,2013-03-27 18:12:00,
2013-03-27 14:23:00,45.0,27.0,27.54,WNW,294,5.0,14.0,48,0.00,,,0.01,,2013-03-27 18:23:00,
2013-03-27 14:32:00,44.0,26.0,27.54,NW,321,4.0,12.0,49,0.00,,,0.01,,2013-03-27 18:32:00,
2013-03-27 14:42:00,44.0,26.0,27.54,NW,321,4.0,12.0,49,0.00,,,0.01,,2013-03-27 18:42:00,
2013-03-27 14:53:00,44.0,27.0,27.55,NNW,333,3.0,10.0,50,0.00,,,0.01,,2013-03-27 18:53:00,
2013-03-27 15:02:00,45.0,27.0,27.55,SW,232,4.0,10.0,48,0.00,,,0.01,,2013-03-27 19:02:00,
2013-03-27 15:12:00,45.0,27.0,27.55,SW,232,4.0,10.0,48,0.00,,,0.01,,2013-03-27 19:12:00,
2013-03-27 15:22:00,45.0,27.0,27.55,WSW,248,4.0,10.0,49,0.00,,,0.01,,2013-03-27 19:22:00,
2013-03-27 15:32:00,44.0,26.0,27.54,WNW,282,2.0,9.0,49,0.00,,,0.01,,2013-03-27 19:32:00,
2013-03-27 15:42:00,44.0,26.0,27.54,WNW,282,2.0,9.0,49,0.00,,,0.01,,2013-03-27 19:42:00,
2013-03-27 15:52:00,45.0,27.0,27.55,WNW,297,5.0,16.0,48,0.00,,,0.01,,2013-03-27 19:52:00,
2013-03-27 16:02:00,44.0,26.0,27.55,NW,310,5.0,12.0,49,0.00,,,0.01,,2013-03-27 20:02:00,
2013-03-27 16:12:00,44.0,26.0,27.55,NW,310,5.0,12.0,49,0.00,,,0.01,,2013-03-27 20:12:00,
2013-03-27 16:22:00,45.0,27.0,27.55,WSW,249,4.0,10.0,49,0.00,,,0.01,,2013-03-27 20:22:00,
2013-03-27 16:32:00,44.0,26.0,27.55,NNW,334,1.0,9.0,49,0.00,,,0.01,,2013-03-27 20:32:00,
2013-03-27 16:42:00,44.0,26.0,27.55,NNW,334,1.0,9.0,49,0.00,,,0.01,,2013-03-27 20:42:00,
2013-03-27 16:52:00,44.0,27.0,27.55,NNE,25,1.0,8.0,50,0.00,,,0.01,,2013-03-27 20:52:00,
2013-03-27 17:02:00,44.0,28.0,27.56,SSE,148,2.0,6.0,52,0.00,,,0.01,,2013-03-27 21:02:00,
2013-03-27 17:12:00,44.0,28.0,27.56,SSE,148,2.0,6.0,52,0.00,,,0.01,,2013-03-27 21:12:00,
2013-03-27 17:22:00,43.0,26.0,27.56,South,184,3.0,9.0,51,0.00,,,0.01,,2013-03-27 21:22:00,
2013-03-27 17:32:00,43.0,27.0,27.57,ENE,68,4.0,10.0,52,0.00,,,0.01,,2013-03-27 21:32:00,
2013-03-27 17:43:00,43.0,27.0,27.57,ENE,68,4.0,10.0,52,0.00,,,0.01,,2013-03-27 21:43:00,
2013-03-27 17:52:00,43.0,27.0,27.57,West,261,3.0,10.0,52,0.00,,,0.01,,2013-03-27 21:52:00,
2013-03-27 18:03:00,43.0,27.0,27.57,NNW,347,3.0,6.0,53,0.00,,,0.01,,2013-03-27 22:03:00,
2013-03-27 18:12:00,43.0,27.0,27.57,NNW,347,3.0,6.0,53,0.00,,,0.01,,2013-03-27 22:12:00,
2013-03-27 18:23:00,42.0,30.0,27.59,ENE,72,2.0,7.0,62,0.00,,,0.01,,2013-03-27 22:23:00,
2013-03-27 18:33:00,41.0,30.0,27.59,NW,304,0.0,4.0,64,0.00,,,0.01,,2013-03-27 22:33:00,
2013-03-27 18:42:00,41.0,30.0,27.59,NW,304,0.0,4.0,64,0.00,,,0.01,,2013-03-27 22:42:00,
2013-03-27 18:53:00,41.0,29.0,27.59,WSW,246,1.0,7.0,63,0.00,,,0.01,,2013-03-27 22:53:00,
2013-03-27 19:02:00,40.0,30.0,27.60,ENE,78,2.0,6.0,67,0.00,,,0.01,,2013-03-27 23:02:00,
2013-03-27 19:12:00,40.0,30.0,27.60,ENE,78,2.0,6.0,67,0.00,,,0.01,,2013-03-27 23:12:00,
2013-03-27 19:22:00,39.0,30.0,27.60,SE,128,0.0,4.0,70,0.00,,,0.01,,2013-03-27 23:22:00,
2013-03-27 19:32:00,38.0,30.0,27.62,East,98,0.0,4.0,73,0.00,,,0.01,,2013-03-27 23:32:00,
2013-03-27 19:42:00,38.0,30.0,27.62,East,98,0.0,4.0,73,0.00,,,0.01,,2013-03-27 23:42:00,
2013-03-27 19:52:00,38.0,31.0,27.62,ENE,76,0.0,4.0,77,0.00,,,0.01,,2013-03-27 23:52:00,
2013-03-27 20:02:00,37.0,31.0,27.63,NE,53,1.0,2.0,79,0.00,,,0.01,,2013-03-28 00:02:00,
2013-03-27 20:12:00,37.0,31.0,27.63,NE,53,1.0,2.0,79,0.00,,,0.01,,2013-03-28 00:12:00,
2013-03-27 20:22:00,37.0,32.0,27.63,SE,134,1.0,6.0,81,0.00,,,0.01,,2013-03-28 00:22:00,
2013-03-27 20:33:00,36.0,31.0,27.64,NE,51,1.0,3.0,82,0.00,,,0.01,,2013-03-28 00:33:00,
2013-03-27 20:43:00,36.0,31.0,27.64,NE,51,1.0,3.0,82,0.00,,,0.01,,2013-03-28 00:43:00,
2013-03-27 20:52:00,36.0,31.0,27.64,NW,320,2.0,6.0,82,0.00,,,0.01,,2013-03-28 00:52:00,
2013-03-27 21:02:00,36.0,31.0,27.65,East,97,0.0,2.0,82,0.00,,,0.01,,2013-03-28 01:02:00,
2013-03-27 21:12:00,36.0,31.0,27.65,East,97,0.0,2.0,82,0.00,,,0.01,,2013-03-28 01:12:00,
2013-03-27 21:22:00,36.0,32.0,27.65,NW,304,1.0,5.0,84,0.00,,,0.01,,2013-03-28 01:22:00,
2013-03-27 21:32:00,35.0,32.0,27.66,WSW,255,0.0,5.0,87,0.00,,,0.01,,2013-03-28 01:32:00,
2013-03-27 21:42:00,35.0,32.0,27.66,WSW,255,0.0,5.0,87,0.00,,,0.01,,2013-03-28 01:42:00,
2013-03-27 21:53:00,35.0,32.0,27.66,WSW,254,0.0,1.0,88,0.00,,,0.01,,2013-03-28 01:53:00,
2013-03-27 22:03:00,35.0,32.0,27.66,West,277,0.0,3.0,90,0.00,,,0.01,,2013-03-28 02:03:00,
2013-03-27 22:12:00,35.0,32.0,27.66,West,277,0.0,3.0,90,0.00,,,0.01,,2013-03-28 02:12:00,
2013-03-27 22:22:00,34.0,32.0,27.66,NW,304,1.0,5.0,91,0.00,,,0.01,,2013-03-28 02:22:00,
2013-03-27 22:32:00,34.0,32.0,27.66,NW,304,1.0,5.0,91,0.00,,,0.01,,2013-03-28 02:32:00,
2013-03-27 22:42:00,34.0,32.0,27.66,NW,304,1.0,5.0,91,0.00,,,0.01,,2013-03-28 02:42:00,
2013-03-27 22:52:00,34.0,32.0,27.66,NW,304,1.0,5.0,91,0.00,,,0.01,,2013-03-28 02:52:00,
2013-03-27 23:12:00,34.0,32.0,27.66,West,275,1.0,2.0,92,0.00,,,0.01,,2013-03-28 03:12:00,
2013-03-27 23:22:00,34.0,32.0,27.66,WNW,285,1.0,3.0,93,0.00,,,0.01,,2013-03-28 03:22:00,
2013-03-27 23:33:00,34.0,32.0,27.66,WSW,254,0.0,1.0,93,0.00,,,0.01,,2013-03-28 03:33:00,
2013-03-27 23:43:00,34.0,32.0,27.66,WSW,254,0.0,1.0,93,0.00,,,0.01,,2013-03-28 03:43:00,
2013-03-27 23:53:00,33.0,31.0,27.66,WSW,243,0.0,1.0,94,0.00,,,0.01,,2013-03-28 03:53:00,